Regional Weather Roundup
Issued by NWS Sioux Falls, SD

Home | Current Version | Previous Version | Text Only | Print | Product List | Glossary On
Versions: 1 2 3 4 5 6 7 8 9 10 11 12 13 14 15 16 17 18 19 20 21 22 23 24 25 26 27 28 29 30 31 32 33 34 35 36 37 38 39 40 41 42 43 44 45 46 47 48 49 50
748
ASUS43 KFSD 191410
RWRFSD

WEATHER ROUNDUP FOR SE SOUTH DAKOTA/SW MINNESOTA/NW IOWA
NATIONAL WEATHER SERVICE SIOUX FALLS SD
900 AM CDT THU APR 19 2018

NOTE: "FAIR" INDICATES FEW OR NO CLOUDS BELOW 12,000 FEET WITH NO
SIGNIFICANT WEATHER AND OR OBSTRUCTIONS TO VISIBILITY.


SDZ038>040-050-052>070-191500-
SOUTHEAST SOUTH DAKOTA

CITY           SKY/WX    TMP DP  RH WIND       PRES   REMARKS
CHAMBERLAIN    MOSUNNY   33  33  99 CALM      30.45R
HURON          SUNNY     32  29  88 W3        30.44R
MADISON        FAIR      32  32 100 CALM      30.43R
MITCHELL       MOSUNNY   28  27  96 W5        30.46R WCI  23
SIOUX FALLS    MOSUNNY   30  24  78 CALM      30.44R
WINNER         FAIR      30  25  81 SW3       30.43R
YANKTON        SUNNY     34  30  85 CALM      30.46R
$$

MNZ071-072-080-081-089-090-097-098-191500-
SOUTHWEST MINNESOTA

CITY           SKY/WX    TMP DP  RH WIND       PRES   REMARKS
FAIRMONT       CLOUDY    31  20  63 NW6       30.46R WCI  25
JACKSON        CLOUDY    27  16  63 NW6       30.45R WCI  20
LUVERNE        CLOUDY    28  21  74 NE3       30.45R
MARSHALL       SUNNY     29  23  78 CALM      30.46R
MONTEVIDEO     SUNNY     39  28  65 W3        30.46R
PIPESTONE      SUNNY    N/A N/A N/A NE3       30.43R
REDWOOD FALLS  CLOUDY    36  21  54 NW5       30.45R
TRACY          CLOUDY    32  21  65 CALM      30.44S
WINDOM           N/A     28   9  43 CALM      30.45R
WORTHINGTON    CLOUDY    32  20  61 CALM      30.45R
$$

IAZ001>003-012>014-020>022-031-032-NEZ013-014-SDZ071-191500-
NORTHWEST IOWA

CITY           SKY/WX    TMP DP  RH WIND       PRES   REMARKS
CHEROKEE       SUNNY     31  22  69 N3        30.46R
DENISON        SUNNY     34  27  75 NE7       30.45R WCI  28
ESTHERVILLE    CLOUDY    19  14  81 NW8       30.44R WCI   9
LE MARS        SUNNY     30  21  69 N6        30.46R WCI  24
ORANGE CITY    CLOUDY    30  19  64 NE3       30.44R
SHELDON        CLOUDY    25  19  80 N3        30.43R
SIOUX CITY     SUNNY     36  25  64 CALM      30.46R
SPENCER        CLOUDY    25  16  68 W5        30.45R WCI  19
STORM LAKE     SUNNY     30  21  69 N6        30.44R WCI  24
$$

ABBREVIATIONS USED IN REMARKS
   TC - TEMPERATURE IN CELSIUS
  WCI - WIND CHILL INDEX
   HX - HEAT INDEX
  VSB - VISIBILITY





USA.gov is the U.S. government's official web portal to all federal, state and local government web resources and services.